Vertical_Velocity
-1 -1 0 -0 -1 -1 -2 -2 -1 -2 -2 -0 -1 -1 -1 -2 1 -0 -2 7 2 -1 2 7 7 -1 1 -1 1 -2 3 -1 1
0 -0 -1 -2 -1 -1 -1 -2 -1 -2 -1 -1 -0 -1 -1 1 -0 -1 -1 -4 -1 -2 -2 -1 -1 -1 -0 2 9 4 5 6 6
-1 -1 -2 -1 -1 -1 1 -1 -0 0 -0 0 1 1 1 -0 -1 -1 6 -1 2 1 0 -1 -2 -1 -1 1 -1 -1 -4 -1 -1
-2 -1 0 -0 -1 -1 0 -1 0 1 0 0 1 -1 -1 3 1 0 12 -0 -0 -1 -0 -2 -1 0 0 -0 1 -1 1 -1 -0
-1 -1 -2 -2 -0 0 -0 -1 -1 -1 -1 -1 -1 -1 -1 0 -1 -3 -3 0 2 2 -3 0 -1 -2 -1 -1 -3 -2 2 0 -0
-1 -1 1 -1 0 -0 -3 -1 -0 -0 -1 -1 -1 -2 -0 -0 -3 2 -3 -1 -1 -3 -1 -3 -3 0 -2 -3 -1 -1 -3 0 -1
2 0 0 -1 0 -0 -0 1 0 -1 -1 -1 -1 -0 -0 0 1 5 1 1 -2 -1 0 -1 -1 1 -1 -2 -1 -1 -1 1 -1
-2 0 0 -0 -0 -1 -1 -0 1 0 1 -1 -1 -1 -1 -0 -2 -1 2 -1 -3 1 0 -1 1 0 -1 -1 -1 -2 -0 1 -1
-1 -1 -1 -0 -1 -1 -0 -0 -1 0 1 1 -0 -1 -1 -2 -3 -3 1 -1 1 -2 0 0 -1 -0 1 1 -1 -1 -2 -1 -2
-0 -1 -1 -2 0 -1 0 -0 -0 -0 -0 -0 1 1 -1 3 0 5 0 -2 -0 -1 0 0 0 -1 -0 1 -0 2 0 -1 -1
-2 -1 -2 -1 -2 0 2 0 -0 -1 -0 -0 0 0 -1 -2 2 3 -0 2 2 -1 -1 1 -1 1 -3 -3 -2 -2 -2 -0 -1
2 0 -0 -1 -1 -1 1 1 2 -1 -1 -0 -1 0 -0 -1 -1 -2 1 -2 2 -0 1 -1 -1 -1 -3 -2 -4 -1 -0 -0 1
2 3 -1 -1 2 -0 -1 0 0 -0 -1 -0 -1 0 -0 0 -0 -0 -1 -2 -4 0 -2 0 1 1 0 0 -1 -2 -3 -2 -0
1 0 2 -1 -0 -2 -1 -1 2 2 2 -1 -2 -1 -0 0 1 -0 -0 1 -1 -2 -2 -1 0 1 1 -1 -0 -1 -1 -2 -1
-4 0 -2 2 0 0 -2 -3 -2 -1 3 2 1 -1 -1 0 -1 -0 -1 -1 -1 1 -0 0 -3 -2 0 -1 -1 1 0 1 0
-1 2 4 -1 -5 2 2 1 -1 -0 -0 1 1 -0 -0 -1 -1 1 -2 -4 -1 1 0 1 -0 0 -1 1 0 -2 -3 -1 -1
-2 2 2 2 1 0 -2 1 -0 1 -1 -0 5 0 -2 -3 -2 -2 -0 -0 -1 -1 0 1 1 1 0 -1 1 0 1 -2 -1
1 7 1 7 1 -5 3 -3 -2 2 -1 -3 -2 -0 -7 0 -2 -1 2 3 -2 -0 -0 0 -1 1 1 0 -0 -0 1 -0 -2
5 4 7 1 4 3 -4 5 -1 6 -8 6 -1 -1 -2 2 -3 5 -1 2 1 1 -1 2 -0 2 3 3 -0 -2 -0 0 0
5 1 9 8 -1 11 1 3 -6 -2 10 -4 -1 4 2 0 -1 3 -3 -0 0 -0 1 1 -2 -3 -5 -3 -2 1 -1 -2 -0
Height
1554 1555 1556 1557 1557 1558 1558 1558 1558 1558 1558 1559 1558 1558 1559 1559 1560 1560 1560 1560 1559 1558 1558 1558 1557 1557 1556 1556 1556 1555 1554 1554 1553
1554 1555 1556 1557 1558 1559 1559 1559 1559 1559 1560 1560 1560 1560 1560 1561 1561 1562 1562 1560 1560 1559 1559 1558 1558 1558 1558 1557 1557 1555 1555 1554 1554
1554 1555 1557 1558 1559 1559 1560 1560 1561 1560 1560 1561 1561 1561 1561 1562 1562 1563 1563 1561 1561 1560 1559 1559 1559 1559 1559 1558 1557 1556 1555 1556 1555
1555 1556 1557 1558 1559 1560 1560 1561 1561 1561 1561 1561 1561 1561 1562 1564 1563 1564 1563 1562 1561 1560 1559 1558 1558 1558 1557 1557 1556 1557 1556 1556 1557
1555 1556 1557 1558 1559 1560 1561 1561 1562 1562 1561 1562 1562 1562 1563 1564 1563 1565 1563 1563 1562 1560 1559 1558 1557 1557 1557 1555 1554 1555 1555 1555 1555
1556 1556 1557 1558 1559 1560 1561 1562 1562 1562 1562 1562 1562 1562 1563 1563 1564 1565 1562 1562 1561 1560 1559 1557 1557 1556 1554 1555 1554 1553 1554 1553 1554
1557 1557 1557 1558 1559 1560 1560 1561 1561 1561 1562 1562 1562 1562 1562 1563 1564 1564 1561 1560 1559 1559 1558 1557 1556 1555 1554 1554 1554 1553 1554 1553 1553
1555 1556 1556 1557 1558 1560 1559 1560 1560 1560 1561 1560 1561 1561 1561 1561 1562 1561 1560 1559 1558 1558 1556 1556 1555 1554 1554 1553 1553 1553 1554 1553 1553
1554 1555 1555 1557 1557 1559 1559 1559 1559 1559 1559 1559 1559 1559 1559 1559 1560 1559 1559 1558 1557 1557 1556 1555 1555 1554 1554 1553 1553 1553 1553 1552 1553
1551 1552 1553 1554 1556 1556 1556 1556 1556 1557 1557 1557 1558 1557 1557 1557 1557 1558 1555 1555 1556 1555 1555 1555 1554 1554 1554 1554 1554 1553 1553 1552 1552
1545 1548 1550 1551 1552 1552 1553 1553 1553 1554 1554 1555 1555 1555 1555 1556 1555 1557 1554 1554 1554 1554 1554 1554 1554 1553 1553 1553 1553 1553 1552 1552 1551
1541 1543 1544 1545 1547 1549 1549 1549 1549 1550 1551 1552 1552 1552 1552 1552 1552 1553 1555 1553 1553 1553 1553 1552 1552 1552 1551 1551 1551 1551 1551 1550 1550
1537 1538 1539 1542 1543 1544 1544 1545 1546 1547 1548 1549 1549 1550 1549 1549 1549 1549 1549 1550 1551 1551 1550 1551 1550 1550 1550 1549 1549 1549 1549 1548 1547
1532 1533 1534 1535 1536 1538 1540 1541 1542 1543 1544 1545 1545 1546 1546 1546 1545 1546 1545 1546 1546 1547 1547 1548 1549 1549 1548 1548 1547 1547 1546 1546 1544
1526 1527 1529 1530 1530 1531 1533 1536 1538 1540 1541 1541 1541 1542 1542 1542 1542 1542 1542 1542 1542 1543 1544 1544 1545 1546 1546 1546 1546 1545 1544 1543 1542
1519 1520 1521 1523 1524 1525 1526 1530 1532 1533 1536 1538 1537 1537 1537 1537 1537 1537 1538 1538 1540 1539 1541 1541 1542 1542 1543 1543 1542 1542 1541 1540 1539
1512 1513 1514 1515 1517 1519 1520 1521 1523 1527 1529 1532 1534 1535 1533 1531 1531 1531 1532 1533 1534 1535 1537 1537 1538 1538 1538 1538 1538 1538 1537 1536 1536
1504 1504 1507 1508 1509 1510 1511 1514 1516 1518 1521 1524 1529 1528 1526 1523 1524 1525 1527 1527 1528 1530 1532 1532 1533 1533 1533 1534 1533 1533 1533 1532 1531
1494 1495 1499 1500 1501 1503 1503 1505 1508 1511 1512 1516 1518 1518 1519 1520 1520 1518 1520 1522 1523 1525 1526 1527 1528 1529 1530 1529 1529 1528 1528 1527 1526
1486 1487 1489 1491 1492 1494 1496 1497 1498 1501 1504 1505 1508 1511 1513 1514 1516 1515 1515 1516 1516 1518 1519 1521 1521 1522 1523 1524 1523 1523 1523 1522 1521